TimeEST,TemperatureF,Dew PointF,Humidity,Sea Level PressureIn,VisibilityMPH,Wind Direction,Wind SpeedMPH,Gust SpeedMPH,PrecipitationIn,Events,Conditions,WindDirDegrees,DateUTC
12:15 AM,55.4,46.4,72,30.02,10.0,South,5.8,-,N/A,,Mostly Cloudy,180,2012-12-25 05:15:00
12:35 AM,55.4,46.4,72,30.02,10.0,South,4.6,-,N/A,,Clear,180,2012-12-25 05:35:00
12:55 AM,53.6,46.4,77,30.02,10.0,South,4.6,-,N/A,,Clear,190,2012-12-25 05:55:00
1:15 AM,53.6,46.4,77,30.01,10.0,South,4.6,-,N/A,,Clear,190,2012-12-25 06:15:00
1:35 AM,53.6,46.4,77,30.00,10.0,South,4.6,-,N/A,,Clear,180,2012-12-25 06:35:00
1:55 AM,53.6,46.4,77,30.01,10.0,SSW,4.6,-,N/A,,Clear,200,2012-12-25 06:55:00
2:15 AM,53.6,46.4,77,30.00,10.0,South,4.6,-,N/A,,Clear,180,2012-12-25 07:15:00
2:35 AM,53.6,46.4,77,30.00,10.0,South,4.6,-,N/A,,Clear,190,2012-12-25 07:35:00
2:55 AM,53.6,46.4,77,30.00,10.0,South,3.5,-,N/A,,Clear,190,2012-12-25 07:55:00
3:15 AM,53.6,46.4,77,30.00,10.0,South,5.8,-,N/A,,Clear,180,2012-12-25 08:15:00
3:35 AM,51.8,46.4,82,30.00,10.0,South,4.6,-,N/A,,Clear,190,2012-12-25 08:35:00
3:55 AM,51.8,46.4,82,30.00,10.0,South,4.6,-,N/A,,Clear,190,2012-12-25 08:55:00
4:15 AM,51.8,46.4,82,29.99,10.0,South,5.8,-,N/A,,Mostly Cloudy,190,2012-12-25 09:15:00
4:35 AM,53.6,48.2,82,29.99,10.0,South,4.6,-,N/A,,Mostly Cloudy,180,2012-12-25 09:35:00
4:55 AM,55.4,48.2,77,29.98,10.0,South,4.6,-,N/A,,Partly Cloudy,190,2012-12-25 09:55:00
5:15 AM,53.6,48.2,82,29.99,10.0,South,5.8,-,N/A,,Clear,180,2012-12-25 10:15:00
5:35 AM,53.6,48.2,82,29.99,10.0,South,3.5,-,N/A,,Clear,180,2012-12-25 10:35:00
5:55 AM,53.6,48.2,82,29.99,10.0,Calm,Calm,-,N/A,,Clear,0,2012-12-25 10:55:00
6:15 AM,53.6,48.2,82,30.00,10.0,South,3.5,-,N/A,,Clear,180,2012-12-25 11:15:00
6:35 AM,53.6,48.2,82,30.00,10.0,South,3.5,-,N/A,,Clear,170,2012-12-25 11:35:00
6:50 AM,51.8,46.4,82,30.01,10.0,Calm,Calm,-,N/A,,Clear,0,2012-12-25 11:50:00
7:50 AM,51.8,48.2,88,30.02,10.0,Calm,Calm,-,N/A,,Partly Cloudy,0,2012-12-25 12:50:00
8:50 AM,57.2,51.8,82,30.03,10.0,South,5.8,-,N/A,,Partly Cloudy,170,2012-12-25 13:50:00
9:50 AM,62.6,51.8,68,30.03,10.0,South,5.8,-,N/A,,Partly Cloudy,180,2012-12-25 14:50:00
10:50 AM,66.2,53.6,64,30.02,10.0,South,4.6,-,N/A,,Partly Cloudy,180,2012-12-25 15:50:00
11:50 AM,69.8,53.6,56,30.00,10.0,SSE,4.6,-,N/A,,Partly Cloudy,160,2012-12-25 16:50:00
12:50 PM,71.6,51.8,50,29.95,10.0,South,9.2,-,N/A,,Partly Cloudy,180,2012-12-25 17:50:00
1:50 PM,73.4,51.8,47,29.94,10.0,South,11.5,-,N/A,,Partly Cloudy,180,2012-12-25 18:50:00
2:50 PM,73.4,51.8,47,29.93,10.0,South,15.0,-,N/A,,Partly Cloudy,180,2012-12-25 19:50:00
3:50 PM,73.4,53.6,50,29.93,10.0,South,8.1,-,N/A,,Partly Cloudy,190,2012-12-25 20:50:00
4:50 PM,71.6,53.6,53,29.91,10.0,South,6.9,-,N/A,,Partly Cloudy,180,2012-12-25 21:50:00
5:50 PM,68.0,55.4,64,29.92,10.0,SE,4.6,-,N/A,,Clear,140,2012-12-25 22:50:00
6:50 PM,64.4,53.6,68,29.94,10.0,Calm,Calm,-,N/A,,Clear,0,2012-12-25 23:50:00
7:55 PM,62.6,53.6,72,29.93,10.0,Calm,Calm,-,N/A,,Clear,0,2012-12-26 00:55:00
8:15 PM,62.6,53.6,72,29.94,10.0,NE,3.5,-,N/A,,Clear,40,2012-12-26 01:15:00
8:35 PM,62.6,53.6,72,29.92,10.0,ESE,4.6,-,N/A,,Clear,110,2012-12-26 01:35:00
8:55 PM,64.4,53.6,68,29.92,10.0,East,3.5,-,N/A,,Clear,90,2012-12-26 01:55:00
9:15 PM,62.6,53.6,72,29.93,10.0,Calm,Calm,-,N/A,,Clear,0,2012-12-26 02:15:00
9:35 PM,64.4,55.4,73,29.91,10.0,SSE,5.8,-,N/A,,Partly Cloudy,150,2012-12-26 02:35:00
9:55 PM,64.4,55.4,73,29.91,10.0,SSE,6.9,-,N/A,,Clear,150,2012-12-26 02:55:00
10:15 PM,64.4,55.4,73,29.91,10.0,SE,5.8,-,N/A,,Clear,140,2012-12-26 03:15:00
10:35 PM,64.4,55.4,73,29.90,10.0,SE,3.5,-,N/A,,Clear,130,2012-12-26 03:35:00
10:55 PM,64.4,55.4,73,29.91,10.0,SE,4.6,-,N/A,,Clear,140,2012-12-26 03:55:00
11:15 PM,64.4,55.4,73,29.91,10.0,SSE,4.6,-,N/A,,Clear,150,2012-12-26 04:15:00
11:35 PM,64.4,55.4,73,29.90,10.0,SE,5.8,-,N/A,,Clear,140,2012-12-26 04:35:00
11:55 PM,64.4,55.4,73,29.89,10.0,SSE,6.9,-,N/A,,Clear,150,2012-12-26 04:55:00